Location: Unspecified
(0.0000°N, 0.0000°E)
Time: 20:38:15
(UTC+00:00)

deb Explorer IX - All Passes

Search period start: 23 November 2017 00:00
Search period end: 03 December 2017 00:00
Orbit: 541 x 1122 km, 38.8° (Epoch: 22 November)

Date Brightness Start Highest point End Pass type
(mag) Time Alt. Az. Time Alt. Az. Time Alt. Az.
23 Nov - 03:17:04 10° SW 03:21:32 87° SE 03:25:36 10° NE visible
23 Nov - 14:10:15 10° NNW 14:16:26 41° NE 14:23:13 10° ESE daylight
23 Nov - 15:57:24 10° WNW 16:04:02 43° SW 16:11:01 10° SSE daylight
24 Nov - 01:13:11 10° SSE 01:14:16 11° SE 01:15:19 10° SE night (unlit)
24 Nov - 02:57:00 10° SW 03:01:35 85° NW 03:05:42 10° NE night (unlit)
24 Nov - 13:50:11 10° NNW 13:56:16 43° NE 14:03:03 10° ESE daylight
24 Nov - 15:37:24 10° WNW 15:43:51 41° SW 15:50:45 10° SSE daylight
25 Nov - 00:52:19 10° S 00:54:19 12° SE 00:56:13 10° ESE night (unlit)
25 Nov - 02:36:55 10° SW 02:41:39 78° NW 02:45:49 10° NE night (unlit)
25 Nov - 13:30:08 10° NNW 13:36:08 44° NE 13:42:53 10° ESE daylight
25 Nov - 15:17:26 10° WNW 15:23:42 38° SW 15:30:28 10° SSE daylight
26 Nov - 00:31:42 10° S 00:34:21 14° SE 00:36:49 10° ESE night (unlit)
26 Nov - 02:16:50 10° SW 02:21:41 72° NW 02:25:55 10° NE night (unlit)
26 Nov - 13:10:06 10° NNW 13:15:59 46° NE 13:22:41 10° ESE daylight
26 Nov - 14:57:29 10° WNW 15:03:32 36° SW 15:10:10 10° SSE daylight
27 Nov - 00:11:11 10° S 00:14:22 16° SE 00:17:18 10° ESE night (unlit)
27 Nov - 01:56:44 10° SW 02:01:43 66° NW 02:06:01 10° NE night (unlit)
27 Nov - 12:50:05 10° NNW 12:55:51 48° NE 13:02:29 10° ESE daylight
27 Nov - 14:37:34 10° W 14:43:24 33° SW 14:49:50 10° SSE daylight
27 Nov - 23:50:42 10° S 23:54:22 18° SE 23:57:42 10° ESE night (unlit)
28 Nov - 01:36:37 10° WSW 01:41:44 61° NW 01:46:07 10° NE night (unlit)
28 Nov - 12:30:05 10° NNW 12:35:43 51° NE 12:42:17 10° ESE daylight
28 Nov - 14:17:40 10° W 14:23:16 31° SW 14:29:28 10° SSE daylight
28 Nov - 23:30:16 10° S 23:34:23 20° SE 23:38:04 10° E night (unlit)
29 Nov - 01:16:29 10° WSW 01:21:44 57° NW 01:26:11 10° NE night (unlit)
29 Nov - 12:10:05 10° NW 12:15:36 53° NE 12:22:04 10° ESE daylight
29 Nov - 13:57:48 10° W 14:03:09 29° SW 14:09:06 10° SSE daylight
29 Nov - 23:09:50 10° SSW 23:14:22 22° SE 23:18:22 10° E night (unlit)
30 Nov - 00:56:20 10° WSW 01:01:42 54° NW 01:06:16 10° NE night (unlit)
30 Nov - 11:50:07 10° NW 11:55:29 56° NE 12:01:51 10° ESE daylight
30 Nov - 13:37:56 10° W 13:43:02 27° SW 13:48:44 10° SSE daylight
30 Nov - 22:49:25 10° SSW 22:54:19 24° SE 22:58:38 10° E night (unlit)
01 Dec - 00:36:10 10° WSW 00:41:40 50° NW 00:46:20 10° NNE night (unlit)
01 Dec - 11:30:09 10° NW 11:35:23 59° NE 11:41:38 10° ESE daylight
01 Dec - 13:18:08 10° W 13:22:56 25° SW 13:28:19 10° SSE daylight
01 Dec - 22:29:01 10° SSW 22:34:16 26° SE 22:38:52 10° E visible
02 Dec - 00:16:00 10° WSW 00:21:38 48° NW 00:26:23 10° NNE night (unlit)
02 Dec - 11:10:11 10° NW 11:15:18 62° NE 11:21:25 10° ESE daylight
02 Dec - 12:58:20 10° W 13:02:51 23° SW 13:07:53 10° SSE daylight
02 Dec - 22:08:38 10° SSW 22:14:11 29° SE 22:19:04 10° E visible
